Change the Weather History Date:

Friday, December 7, 2012

  Actual Average (KPLN) Record (KPLN)
Temperature  
Mean Temperature 36 °F -  
Max Temperature 40 °F 31 °F 47 °F (1951)
Min Temperature 32 °F 17 °F -14 °F (1970)
Degree Days  
Heating Degree Days 29    
Moisture  
Dew Point 28 °F    
Average Humidity 71    
Maximum Humidity 81    
Minimum Humidity 61    
Precipitation  
Precipitation 0.00 in - - ()
Sea Level Pressure  
Sea Level Pressure 29.93 in    
Wind  
Wind Speed 6 mph (NW)    
Max Wind Speed 12 mph    
Max Gust Speed 17 mph    
Visibility 10 miles    
Events      
Averages and records for this station are not official NWS values.
T = Trace of Precipitation, MM = Missing Value Source: NWS Daily Summary

Daily Weather History Graph

Daily Weather History Graph

Search for Another Location

Airport or City:

Trip Planner

Search our weather history database for the weather conditions in past years. The results will help you decide how hot, cold, wet, or windy it might be!

Date:

Astronomy

Dec. 07, 2012 Rise Set
Actual Time 8:05 AM EST 4:54 PM EST
Civil Twilight 7:31 AM EST 5:28 PM EST
Nautical Twilight 6:53 AM EST 6:05 PM EST
Astronomical Twilight 6:17 AM EST 6:41 PM EST
Moon 1:06 AM EST (12/7) 1:06 PM EST (12/7)
Length of Visible Light 9h 56m
Length of Day
8h 48m
Last Quarter, 39% of the Moon is Illuminated
Dec 7
Last Quarter
Dec 13
New
Dec 20
First Quarter
Dec 28
Full
Jan 4
Last Quarter

Hourly Weather History & Observations

Time (EST) Temp. Windchill Dew Point Humidity Pressure Visibility Wind Dir Wind Speed Gust Speed Precip Events Conditions
12:16 AM 39.2 °F 34.2 °F 32.5 °F 77% 29.82 in 10.0 mi SSW 6.9 mph - N/A   Overcast
12:35 AM 39.2 °F 33.6 °F 32.9 °F 78% 29.82 in 10.0 mi SSW 8.1 mph - N/A   Overcast
12:55 AM 39.4 °F 33.8 °F 33.1 °F 78% 29.82 in 10.0 mi SSW 8.1 mph - N/A   Overcast
1:15 AM 39.4 °F 36.1 °F 33.3 °F 79% 29.81 in 10.0 mi South 4.6 mph - N/A   Overcast
1:35 AM 39.4 °F 35.2 °F 33.4 °F 79% 29.81 in 10.0 mi SSW 5.8 mph - N/A   Overcast
1:55 AM 39.4 °F 34.5 °F 33.6 °F 80% 29.82 in 10.0 mi SSW 6.9 mph - N/A   Overcast
2:15 AM 39.7 °F 35.6 °F 34.0 °F 80% 29.82 in 10.0 mi SW 5.8 mph - N/A   Overcast
2:35 AM 40.1 °F 36.9 °F 34.2 °F 79% 29.83 in 10.0 mi West 4.6 mph - N/A   Overcast
2:55 AM 39.7 °F 36.5 °F 34.2 °F 80% 29.84 in 10.0 mi West 4.6 mph - N/A   Overcast
3:15 AM 39.9 °F 37.8 °F 34.5 °F 81% 29.84 in 10.0 mi West 3.5 mph - N/A   Overcast
3:35 AM 39.6 °F 37.4 °F 34.2 °F 81% 29.84 in 10.0 mi West 3.5 mph - N/A   Overcast
3:55 AM 39.0 °F 35.7 °F 33.4 °F 80% 29.85 in 10.0 mi West 4.6 mph - N/A   Overcast
4:15 AM 38.5 °F 35.0 °F 33.1 °F 81% 29.85 in 10.0 mi WNW 4.6 mph - N/A   Overcast
4:35 AM 38.7 °F 35.2 °F 33.1 °F 80% 29.85 in 10.0 mi West 4.6 mph - N/A   Overcast
4:55 AM 38.3 °F 33.9 °F 33.1 °F 81% 29.86 in 10.0 mi WNW 5.8 mph - N/A   Overcast
5:15 AM 38.5 °F 33.4 °F 33.3 °F 81% 29.87 in 10.0 mi WNW 6.9 mph - N/A   Overcast
5:35 AM 38.5 °F 32.7 °F 32.9 °F 80% 29.87 in 10.0 mi NW 8.1 mph - N/A   Overcast
5:55 AM 37.9 °F 34.4 °F 32.5 °F 81% 29.87 in 10.0 mi NNW 4.6 mph - N/A   Overcast
6:15 AM 37.6 °F 31.6 °F 32.0 °F 80% 29.88 in 10.0 mi NW 8.1 mph - N/A   Overcast
6:35 AM 37.4 °F 30.8 °F 32.0 °F 81% 29.89 in 10.0 mi NW 9.2 mph - N/A   Overcast
6:55 AM 36.9 °F 29.6 °F 31.5 °F 81% 29.90 in 10.0 mi NW 10.4 mph - N/A   Overcast
7:15 AM 36.5 °F 29.7 °F 30.2 °F 78% 29.90 in 10.0 mi NW 9.2 mph - N/A   Overcast
7:35 AM 36.1 °F 29.9 °F 28.8 °F 75% 29.91 in 10.0 mi NW 8.1 mph - N/A   Overcast
7:55 AM 35.8 °F 30.1 °F 28.4 °F 75% 29.92 in 10.0 mi WNW 6.9 mph - N/A   Overcast
8:15 AM 35.8 °F 33.0 °F 28.2 °F 74% 29.92 in 10.0 mi West 3.5 mph - N/A   Overcast
8:35 AM 35.8 °F 31.9 °F 28.0 °F 73% 29.93 in 10.0 mi West 4.6 mph - N/A   Overcast
8:55 AM 36.0 °F 31.1 °F 27.9 °F 72% 29.93 in 10.0 mi West 5.8 mph - N/A   Overcast
9:16 AM 35.8 °F 33.0 °F 27.7 °F 72% 29.93 in 10.0 mi WNW 3.5 mph - N/A   Scattered Clouds
9:35 AM 36.5 °F 32.7 °F 27.7 °F 70% 29.94 in 10.0 mi NW 4.6 mph - N/A   Clear
9:55 AM 36.7 °F 32.9 °F 27.5 °F 69% 29.94 in 10.0 mi NW 4.6 mph - N/A   Clear
10:15 AM 37.2 °F 32.6 °F 27.7 °F 68% 29.95 in 10.0 mi WNW 5.8 mph - N/A   Clear
10:35 AM 37.4 °F 32.1 °F 27.5 °F 67% 29.95 in 10.0 mi NW 6.9 mph - N/A   Mostly Cloudy
10:55 AM 37.4 °F 29.8 °F 27.3 °F 67% 29.96 in 10.0 mi NW 11.5 mph - N/A   Mostly Cloudy
11:15 AM 37.2 °F 30.0 °F 27.3 °F 67% 29.96 in 10.0 mi NW 10.4 mph - N/A   Scattered Clouds
11:36 AM 37.0 °F 31.6 °F 26.6 °F 66% 29.96 in 10.0 mi NW 6.9 mph - N/A   Mostly Cloudy
11:55 AM 38.3 °F 31.4 °F 27.1 °F 64% 29.95 in 10.0 mi NW 10.4 mph - N/A   Overcast
12:15 PM 38.3 °F 30.9 °F 26.6 °F 63% 29.95 in 10.0 mi NNW 11.5 mph - N/A   Mostly Cloudy
12:35 PM 38.3 °F 31.9 °F 26.8 °F 63% 29.94 in 10.0 mi WNW 9.2 mph - N/A   Scattered Clouds
12:55 PM 38.3 °F 31.9 °F 25.7 °F 61% 29.95 in 10.0 mi NW 9.2 mph - N/A   Scattered Clouds
1:16 PM 38.8 °F 31.6 °F 26.4 °F 61% 29.95 in 10.0 mi NW 11.5 mph - N/A   Mostly Cloudy
1:35 PM 38.7 °F 32.9 °F 26.2 °F 61% 29.95 in 10.0 mi NW 8.1 mph - N/A   Overcast
1:55 PM 37.6 °F 30.0 °F 26.4 °F 64% 29.95 in 10.0 mi NW 11.5 mph 17.3 mph N/A   Overcast
2:15 PM 37.6 °F 31.6 °F 26.1 °F 63% 29.95 in 10.0 mi NW 8.1 mph - N/A   Overcast
2:35 PM 37.8 °F 31.8 °F 26.1 °F 63% 29.95 in 10.0 mi NW 8.1 mph - N/A   Overcast
2:56 PM 37.4 °F 30.8 °F 26.2 °F 64% 29.95 in 10.0 mi NW 9.2 mph - N/A   Overcast
3:15 PM 36.7 °F 32.0 °F 26.1 °F 65% 29.95 in 10.0 mi NNW 5.8 mph - N/A   Overcast
3:35 PM 36.5 °F 31.0 °F 26.1 °F 66% 29.96 in 10.0 mi WNW 6.9 mph - N/A   Overcast
3:55 PM 36.1 °F 31.4 °F 24.8 °F 63% 29.96 in 10.0 mi NW 5.8 mph - N/A   Overcast
4:15 PM 35.8 °F 33.0 °F 25.5 °F 66% 29.97 in 10.0 mi NNW 3.5 mph - N/A   Overcast
4:35 PM 35.6 °F 32.8 °F 26.4 °F 69% 29.98 in 10.0 mi North 3.5 mph - N/A   Overcast
4:55 PM 35.2 °F 32.4 °F 26.1 °F 69% 29.98 in 10.0 mi NW 3.5 mph - N/A   Overcast
5:16 PM 35.1 °F 31.0 °F 26.1 °F 70% 29.98 in 10.0 mi NW 4.6 mph - N/A   Overcast
5:35 PM 34.9 °F 32.0 °F 25.7 °F 69% 29.98 in 10.0 mi NNW 3.5 mph - N/A   Overcast
5:55 PM 34.7 °F 30.6 °F 24.6 °F 67% 29.97 in 10.0 mi NNW 4.6 mph - N/A   Overcast
6:15 PM 34.3 °F 30.2 °F 24.4 °F 67% 29.98 in 10.0 mi NNW 4.6 mph - N/A   Overcast
6:35 PM 34.0 °F 31.0 °F 24.3 °F 68% 29.98 in 10.0 mi NNW 3.5 mph - N/A   Overcast
6:55 PM 33.8 °F 29.6 °F 23.9 °F 67% 29.98 in 10.0 mi NNW 4.6 mph - N/A   Overcast
7:15 PM 33.4 °F 29.1 °F 23.9 °F 68% 29.98 in 10.0 mi NNW 4.6 mph - N/A   Overcast
7:35 PM 33.8 °F 30.8 °F 23.9 °F 67% 29.99 in 10.0 mi NW 3.5 mph - N/A   Overcast
7:56 PM 33.8 °F 27.0 °F 24.4 °F 69% 29.98 in 10.0 mi North 8.1 mph - N/A   Overcast
8:15 PM 33.6 °F 29.4 °F 24.8 °F 70% 29.99 in 10.0 mi North 4.6 mph - N/A   Overcast
8:35 PM 33.4 °F 27.3 °F 24.6 °F 70% 29.99 in 10.0 mi North 6.9 mph - N/A   Overcast
8:56 PM 33.3 °F 27.9 °F 24.8 °F 71% 30.00 in 10.0 mi North 5.8 mph - N/A   Overcast
9:15 PM 33.1 °F 28.7 °F 24.4 °F 71% 30.00 in 10.0 mi North 4.6 mph - N/A   Overcast
9:35 PM 32.9 °F 26.7 °F 23.9 °F 69% 29.99 in 10.0 mi North 6.9 mph - N/A   Overcast
9:56 PM 32.9 °F 28.5 °F 23.7 °F 69% 30.00 in 10.0 mi North 4.6 mph - N/A   Overcast
10:15 PM 32.7 °F 26.4 °F 23.4 °F 68% 29.99 in 10.0 mi North 6.9 mph - N/A   Overcast
10:35 PM 32.5 °F 28.1 °F 23.5 °F 69% 30.00 in 10.0 mi North 4.6 mph - N/A   Overcast
10:55 PM 32.5 °F 29.3 °F 23.4 °F 69% 29.99 in 10.0 mi NNW 3.5 mph - N/A   Overcast
11:15 PM 32.5 °F 29.3 °F 23.5 °F 69% 29.99 in 10.0 mi North 3.5 mph - N/A   Overcast
11:35 PM 32.4 °F 26.0 °F 23.5 °F 70% 29.98 in 10.0 mi North 6.9 mph - N/A   Overcast
11:55 PM 32.9 °F 26.7 °F 23.0 °F 67% 29.98 in 10.0 mi North 6.9 mph - N/A   Overcast